Regional Weather Roundup
Issued by NWS

Home | Current Version | Previous Version | Text Only | Print | Product List | Glossary On
Versions: 1 2 3 4 5 6 7 8 9 10 11 12 13 14 15 16 17 18 19 20 21 22 23 24 25 26 27 28 29 30 31 32 33 34 35 36 37 38 39 40 41 42 43 44 45 46 47 48 49 50
000
ASCA44 KEWX 300920
RWRMX

LATIN AMERICA AND CARIBBEAN REGIONAL WEATHER ROUNDUP
NATIONAL WEATHER SERVICE AUSTIN/SAN ANTONIO TX
400 AM CDT SAT MAY 30 2015

NOTE: "FAIR" INDICATED FEW OR NO CLOUDS BELOW 12,000 FEET WITH NO
SIGNIFICANT WEATHER AND/OR OBSTRUCTIONS TO VISIBILITY.

BAJA CALIFORNIA

CITY           SKY/WX    TMP DP  RH WIND       PRES   REMARKS
TIJUANA        CLOUDY    59  54  82 CALM      29.95F

NORTHWESTERN MEXICO

CITY           SKY/WX    TMP DP  RH WIND       PRES   REMARKS

NORTHEASTERN MEXICO

CITY           SKY/WX    TMP DP  RH WIND       PRES   REMARKS
MATAMOROS      CLEAR     77  77 100 CALM      29.97S
MONTERREY      CLOUDY    73  70  88 E9        29.94S

WESTERN MEXICO

CITY           SKY/WX    TMP DP  RH WIND       PRES   REMARKS
GUADALAJARA    MOCLDY    63  55  77 CALM      30.18F
MAZATLAN       PTCLDY    72  63  73 N9        29.88F
P. VALLARTA    CLOUDY    75  61  60 N5        29.86F
ZACATECAS      MOCLDY    55  48  76 CALM      30.30F

CENTRAL MEXICO

CITY           SKY/WX    TMP DP  RH WIND       PRES   REMARKS
MEXICO CITY    MOCLDY    59  52  77 CALM      30.29F
QUERETARO        N/A    N/A N/A N/A MISG        N/A
S. LUIS POTOSI MOCLDY    61  55  82 CALM      30.24S
TOLUCA         CLOUDY    50  45  81 CALM      30.34F

SOUTHERN MEXICO

CITY           SKY/WX    TMP DP  RH WIND       PRES   REMARKS
ACAPULCO       CLOUDY    79  73  83 NW3       29.85F
VERACRUZ         N/A    N/A N/A N/A MISG        N/A

YUCATAN PENINSULA

CITY           SKY/WX    TMP DP  RH WIND       PRES   REMARKS
CANCUN         PTCLDY    79  73  83 NE6       29.93F
COZUMEL        PTCLDY    73  72  94 CALM      29.92F
MERIDA         PTCLDY    79  72  78 E12       29.91F
TAPACHULA      MOCLDY    77  73  88 CALM      29.87F

CENTRAL AMERICA

CITY           SKY/WX    TMP DP  RH WIND       PRES   REMARKS
MANAGUA        MOSUNNY   77  70  78 SE7       29.83

CARIBBEAN

CITY           SKY/WX    TMP DP  RH WIND       PRES   REMARKS
ARUBA          PTCLDY    81  77  89 E13       29.86S
CURACAO        MOCLDY    81  77  89 E8        29.89R
KINGSTON       PTCLDY    79  70  73 N8        29.92S
NASSAU         PTCLDY    73  72  94 CALM      30.02R
SAN JUAN       PTCLDY    77  73  88 CALM      29.97S
SANTO DOMINGO  MOCLDY    73  72  94 VRB3      29.92F
ST. CROIX      CLEAR     75  73  94 N3        29.96
ST. MAARTEN    MOCLDY    81  75  83 E7        29.94S
ST. THOMAS     LGT RAIN  77  73  88 NE5       29.96

$$



USA.gov is the U.S. government's official web portal to all federal, state and local government web resources and services.